Find OneWeb SL0272

NORAD ID: 48990 Int'l Des: 2021-060 Owner: ONEWEBN Country: UK Constellation: oneweb operational
LEOCIRCULARPOLARONEWEB_TYPE

Current View

Loading 3D Globe...

About OneWeb SL0272

Description loading...

Upcoming Passes

Passes for default location (London). Set your location on the main map for personalized predictions.

Altitude History

Loading altitude history...

Two-Line Element Set

1 48990U 21060Z 26146.22988815 .00000104 00000-0 23769-3 0 9996
2 48990 87.9106 233.1442 0002072 91.8944 268.2425 13.16595175236720
Epoch: May 26, 2026 • Age: 7 hours

Current Status

Altitude 1199.6 km
Velocity 7.26 km/s
Sub-Earth Point 13.78°N, 156.25°E
Launch Date Jul 1, 2021
Age 4.9 years
Type internet

Technical Details

Classification Payload
Mass 148.00 kg
Dry Mass 140.00 kg
Total Mass 148.00 kg
Length 1.30 m
Diameter 1.00 m
Span 5.00 m
Shape Trapezoid+2 pan
Manufacturer ONEWUS
Bus Type ARROW
Phase Status In Orbit
Owner/State ONEWEBN/UK

Most Searched